Terminal Aerodrome Forecast
Issued by NWS

Home | Current Version | Previous Version | Graphics & Text | Print | Product List | Glossary On
Versions: 1 2 3 4 5 6 7 8 9 10 11 12 13 14 15 16 17 18 19 20 21 22
000
FTUS45 KGGW 182300
TAFGDV
TAF
KGDV 182320Z 1900/1924 VRB03KT P6SM VCSH BKN110CB
     FM190300 24007KT P6SM VCTS BKN110CB
     FM191200 28009KT P6SM SCT110
     FM191500 29015KT P6SM SCT090
      AMD LTD TO CLD VIS AND WIND=

USA.gov is the U.S. government's official web portal to all federal, state and local government web resources and services.